Hourly Data Report for July 23, 2004

SHERBROOKE A
QUEBEC

45°26'00.000" N
71°41'00.000" W
241.40 m
7028124
71610
YSC

Download Data

Hourly Data (July 2004)
Hourly Data Report for July 23, 2004
TIME
LST
Temp Definition
°C
Dew Point Definition
°C
Rel Hum Definition
%
Precip. Amount Definition
mm

Wind Dir Definition
10's deg

Wind Spd Definition
km/h
Visibility Definition
km
Stn Press Definition
kPa
Hmdx Definition


Wind Chill Definition


Weather Definition


00:00 22.3 18.8 81   18 4 8.0 98.14 29   Rain
01:00 23.0 18.9 78   LegendMM LegendMM 8.0 98.11 30    
02:00 21.8 19.1 85   30 6 5.6 98.10 29    
03:00 20.8 19.6 93   29 7 2.9 98.12 28    
04:00 20.6 19.6 94   11 4 2.4 98.12 28    
05:00 21.0 19.8 93   15 6 2.7 98.13 28    
06:00 22.3 19.3 83   19 11 4.0 98.13 29    
07:00 21.3 19.8 91   21 7 2.4 98.15 29   Rain, Fog
08:00 20.9 20.0 95   23 7 1.6 98.18 28   Moderate Rain, Fog
09:00 20.6 19.8 95   20 11 1.2 98.21 28   Heavy Rain, Fog
10:00 21.0 20.2 95   13 9 1.2 98.20 29   Rain, Fog
11:00 21.2 20.5 96   22 6 2.4 98.23 29   Rain, Fog
12:00 18.7 17.8 95   17 7 1.2 98.27     Moderate Rain, Fog
13:00 19.8 19.0 95   33 4 4.8 98.26     Rain Showers, Fog
14:00 19.1 18.1 94   30 17 2.4 98.31     Rain Showers, Fog
15:00 17.4 16.4 94   31 19 19.3 98.43     Cloudy
16:00 17.6 16.0 90     0 19.3 98.46     Rain Showers
17:00 16.9 16.0 94   26 7 15.0 98.54     Rain
18:00 16.8 15.5 92   32 4 15.0 98.57      
19:00 16.8 15.3 91   30 11 15.0 98.66      
20:00 15.6 14.0 90   31 11 15.0 98.73      
21:00 14.4 12.6 89   30 9 15.0 98.80      
22:00 14.0 11.9 87   29 7 15.0 98.85      
23:00 13.1 11.4 89   30 6 15.0 98.90      

Notes on Data Quality.

Legend

  • E = Estimated
  • M = Missing
  • NA = Not Available*
  • [empty] = Indicates an unobserved value
Date modified: